Location: Unspecified
(0.0000°N, 0.0000°E)
Time: 14:37:24
(UTC+00:00)

deb Briz - Pass Details

Date: 24 February 2026
Orbit: 1589 x 2054 km, 64.9° (Epoch: 5 March)

Event Time Altitude Azimuth Distance (km) Brightness Sun altitude
Rises 04:37:10 0° 217° (SW) 5,213 ? -23.7°
Reaches altitude 10° 04:40:44 10° 223° (SW) 4,151 ? -22.8°
Maximum altitude 04:50:14 42° 290° (WNW) 2,284 ? -20.5°
Drops below altitude 10° 04:59:06 10° 358° (N) 3,848 ? -18.3°
Sets 05:02:19 0° 5° (N) 4,801 ? -17.5°
